Simultaneous Nadir Overpasses (SNOs) Predictions

Prediction of SNOs near US between AQUA and NPP Satellite Orbit:

Table of predicted SNOs near US for the next 10.0 days since TLE Epoch: 12/30/2016
Index Date (AQUA) Time (AQUA) AQUA Lat,Lon Date (NPP) Time (NPP) NPP Lat,Lon Distance(km) Time Diff (sec)
1 12/31/2016 08:34:44 20.15,-101.84 12/31/2016 08:26:26 20.20,-102.12 28.86 498
2 12/31/2016 10:11:06 29.25,-124.34 12/31/2016 10:05:19 29.38,-125.13 77.44 347
3 01/03/2017 07:18:29 49.89, -75.98 01/03/2017 07:20:42 50.34, -78.30 172.85 133
4 01/03/2017 08:57:22 49.89,-100.70 01/03/2017 09:02:09 50.50,-103.60 217.33 287
5 01/05/2017 18:16:38 49.96, -80.18 01/05/2017 18:10:57 49.66, -81.81 122.11 341
6 01/05/2017 19:55:31 49.95,-104.90 01/05/2017 19:52:25 49.55,-107.14 167.39 186
7 01/05/2017 21:30:41 36.66,-124.98 01/05/2017 21:30:04 36.17,-127.65 244.65 37
8 01/08/2017 09:22:59 24.52,-113.16 01/08/2017 09:15:53 24.64,-113.69 55.30 426




NCC Satellite Simultaneous Nadir Overpasses (SNOs) Prediction Service
